Location: Brede
(50.9167°N, 0.6000°E)
Time: 20:49:31
(UTC+00:00)

Vanguard 1 Rocket - Pass Details

Date: 27 November 2020
Orbit: 655 x 4221 km, 34.3° (Epoch: 17 January)

Event Time Altitude Azimuth Distance (km) Brightness Sun altitude
Exits shadow 03:11:46 40° 200° (SSW) 4,563 10.5 -40.2°
Maximum altitude 03:16:29 44° 175° (S) 4,065 10.4 -39.5°
Drops below altitude 10° 03:30:05 10° 109° (ESE) 4,773 11.6 -37.4°
Sets 03:33:13 0° 103° (ESE) 5,384 12.1 -36.9°
